San Jose, Costa Rica

5:35 AM CST on February 27, 2017 (GMT -0600)
Juan Santamaria International Airport

Weather History for MROC - January, 2006

Change the Weather History Date:

Sunday, January 1, 2006

  Actual Average Record
Temperature  
Mean Temperature 73 °F -  
Max Temperature 83 °F 80 °F 86 °F (2003)
Min Temperature 63 °F 63 °F 62 °F (2003)
Cooling Degree Days 8    
Growing Degree Days 23 (Base 50)    
Moisture  
Dew Point 62 °F    
Average Humidity 72    
Maximum Humidity 100    
Minimum Humidity 40    
Precipitation  
Precipitation 0.00 in 0.01 in - ()
Sea Level Pressure  
Sea Level Pressure 29.94 in    
Wind  
Wind Speed 8 mph ()    
Max Wind Speed 15 mph    
Max Gust Speed -    
Visibility 7.3 miles    
Events      
Averages and records for this station are not official NWS values.
T = Trace of Precipitation, MM = Missing Value Source: Averaged Metar Reports

Daily Weather History Graph

Daily Weather History Graph

Search for Another Location

Airport or City:

Trip Planner

Search our weather history database for the weather conditions in past years. The results will help you decide how hot, cold, wet, or windy it might be!

Date:

Astronomy

Jan. 01, 2006 Rise Set
Actual Time 5:53 AM CST 5:27 PM CST
Civil Twilight 5:31 AM CST 5:49 PM CST
Nautical Twilight 5:04 AM CST 6:16 PM CST
Astronomical Twilight 4:38 AM CST 6:42 PM CST
Moon 7:28 AM CST (1/1) 7:20 PM CST (1/1)
Length of Visible Light 12h 18m
Length of Day
11h 33m
Waxing Crescent, 4% of the Moon is Illuminated
Jan 1
Waxing Crescent
Jan 6
First Quarter
Jan 14
Full
Jan 22
Last Quarter
Jan 29
New

Hourly Weather History & Observations

Time (CST) Temp. Heat Index Dew Point Humidity Pressure Visibility Wind Dir Wind Speed Gust Speed Precip Events Conditions
12:00 AM 64.4 °F - 55.4 °F 73% 29.96 in - East 9.2 mph - N/A   Clear
1:00 AM 64.4 °F - 55.4 °F 73% 29.94 in - East 10.4 mph - N/A   Clear
2:00 AM 66.2 °F - 53.6 °F 64% 29.93 in - East 9.2 mph - N/A   Clear
3:00 AM 66.2 °F - 55.4 °F 68% 29.92 in - East 11.5 mph - N/A   Clear
4:00 AM - - 50.0 °F N/A% - - North - - N/A   Unknown
5:00 AM 64.4 °F - 53.6 °F 68% - - North 5.8 mph - N/A   Clear
6:00 AM 64.4 °F - 55.4 °F 73% 29.95 in - East 9.2 mph - N/A   Clear
7:00 AM 69.8 °F - 57.2 °F 64% 29.97 in - East 10.4 mph - N/A   Clear
8:00 AM 73.4 °F - 57.2 °F 57% 29.99 in - ESE 5.8 mph - N/A   Clear
9:00 AM 76 °F - 60 °F 48% 29.89 in 12 mi East 15.0 mph - -   Scattered Clouds
9:00 AM 77.0 °F - 60.8 °F 57% 30.00 in 6.2 mi East 15.0 mph - N/A   Partly Cloudy
10:00 AM 77.0 °F - 60.8 °F 57% 29.99 in 6.2 mi ESE 12.7 mph - N/A   Partly Cloudy
11:00 AM 80.6 °F 81.8 °F 62.6 °F 54% 29.98 in 6.2 mi East 11.5 mph - N/A   Partly Cloudy
12:00 PM 82 °F - 62 °F 40% 29.81 in 12 mi East 9.2 mph - -   Scattered Clouds
12:00 PM 82.4 °F 83.4 °F 62.6 °F 51% 29.95 in 6.2 mi East 9.2 mph - N/A   Partly Cloudy
1:00 PM 80.6 °F 81.5 °F 60.8 °F 51% 29.92 in 6.2 mi ESE 6.9 mph - N/A   Scattered Clouds
1:30 PM 77.0 °F - 68.0 °F 74% 29.91 in 6.2 mi SW 9.2 mph - N/A   Mostly Cloudy
2:00 PM 75.2 °F - 66.2 °F 73% 29.91 in 6.2 mi WSW 11.5 mph - N/A   Mostly Cloudy
3:00 PM 76 °F - 69 °F 73% 29.79 in 12 mi Calm Calm - -   Mostly Cloudy
3:00 PM 77.0 °F - 69.8 °F 78% 29.91 in 6.2 mi WSW 10.4 mph - N/A   Mostly Cloudy
4:00 PM 73.4 °F - 68.0 °F 83% 29.92 in 6.2 mi SW 6.9 mph - N/A   Mostly Cloudy
5:00 PM 71.6 °F - 66.2 °F 83% 29.94 in 6.2 mi West 6.9 mph - N/A   Mostly Cloudy
6:00 PM 69 °F - 66 °F 89% 29.87 in 12 mi Calm Calm - -   Mostly Cloudy
6:00 PM 69.8 °F - 66.2 °F 88% 29.97 in 6.2 mi WSW 6.9 mph - N/A   Mostly Cloudy
7:00 PM 68.0 °F - 66.2 °F 94% 29.99 in 6.2 mi Calm Calm - N/A   Scattered Clouds
8:00 PM 68.0 °F - 66.2 °F 94% 30.01 in 6.2 mi WSW 4.6 mph - N/A   Scattered Clouds
9:00 PM 67 °F - 66 °F 94% 29.90 in 4 mi West 3.5 mph - -   Mist
9:00 PM 66.2 °F - 66.2 °F 100% 30.02 in 6.2 mi West 3.5 mph - N/A   Scattered Clouds
10:00 PM 66.2 °F - 64.4 °F 94% 30.01 in - Calm Calm - N/A   Clear
11:00 PM 68.0 °F - 60.8 °F 78% 30.00 in - NE 9.2 mph - N/A   Clear